Location: Asheville, NC
(35.6000°N, 82.5500°W)
Time: 19:42:07
(UTC-04:00)

Vanguard 2 - Pass Details

Date: 10 March 2018
Orbit: 553 x 2939 km, 32.9° (Epoch: 23 June)

Event Time Altitude Azimuth Distance (km) Brightness Sun altitude
Rises 16:34:22 0° 280° (W) 6,793 13.3 22.6°
Reaches altitude 10° 16:39:02 10° 278° (W) 5,742 13.1 21.8°
Maximum altitude 16:56:02 64° 203° (SSW) 2,600 10.8 18.5°
Drops below altitude 10° 17:07:38 10° 125° (SE) 4,075 10.9 16.3°
Sets 17:10:23 0° 121° (ESE) 4,789 11.2 15.8°
